• Join FlightAware (Why Join?)
  • Login
  • US Flag GB Flag 
19:30 EDT


 

Airport Tracker/Info


-or-


 

Live Flight TrackerFlight Track Log ✈ UAL582 ✈ 19-May-2013 ✈ CYYZ - KORD

Flight Track Log - Related Links

Times and Time Zones

All times are in EDT time to prevent confusion due to time zone crossing. See the UAL582 flight status page for this flight to view local times or setup timezone preferences in your user account.

Time Position Orientation Groundspeed Altitude Reporting Facility
EDT Latitude Longitude Course Direction KTS MPH feet Rate Location/Type
17:03 43.6667 -79.6333 270° West 30 35 900  Level Toronto Center
17:04 43.6333 -79.7000 235° Southwest 190 219 3,000 2,700 Climbing Toronto Center
17:05 43.6333 -79.7667 270° West 200 230 6,300 1,980 Climbing Toronto Center
17:06 43.6667 -79.8667 295° West 250 288 7,000 600 Climbing Toronto Center
17:07 43.7117 -80.1065 277° West  Level FlightAware Approximate
17:07 43.6833 -79.9500 285° West 260 299 7,600  Level Toronto Center
17:08 43.7179 -80.2302 277° West  Level FlightAware Approximate
17:08 43.7000 -80.0500 283° West 270 311 11,000  Level Toronto Center
17:09 43.7291 -80.3534 277° West  Level FlightAware Approximate
17:09 43.7000 -80.1833 270° West 320 368 13,900  Level Toronto Center
17:10 43.7334 -80.4933 270° West  Level FlightAware Approximate
17:10 43.7167 -80.3000 281° West 350 403 17,100  Level Toronto Center
17:11 43.7333 -80.4667 278° West 360 414 19,800 2,520 Climbing Toronto Center
17:12 43.7333 -80.6000 270° West 370 426 22,200 2,340 Climbing Toronto Center
17:13 43.7000 -80.7333 251° West 390 449 24,500 2,040 Climbing Toronto Center
17:14 43.6500 -80.8833 245° Southwest 400 460 26,300 1,800 Climbing Toronto Center
17:15 43.6167 -81.0333 253° West 410 472 28,200 1,680 Climbing Toronto Center
17:16 43.5833 -81.2000 255° West 430 495 29,700 1,440 Climbing Toronto Center
17:17 43.5500 -81.3667 255° West 440 506 31,100 1,440 Climbing Toronto Center
17:18 43.5167 -81.5167 253° West 450 518 32,600 1,440 Climbing Toronto Center
17:19 43.4833 -81.7000 256° West 450 518 34,000 660 Climbing Toronto Center
17:20 43.4500 -81.8667 255° West 450 518 34,000  Level Toronto Center
17:21 43.4000 -82.0167 245° Southwest 460 529 34,000  Level Toronto Center
17:22 43.3850 -82.1628 262° West 461 531 34,000  Level Cleveland Center
17:23 43.3472 -82.3303 253° West 461 531 34,000  Level Cleveland Center
17:24 43.3072 -82.4917 251° West 461 531 34,000  Level Cleveland Center
17:25 43.2689 -82.6589 253° West 461 531 34,000  Level Cleveland Center
17:26 43.2261 -82.8225 250° West 461 531 34,000  Level Cleveland Center
17:27 43.1814 -82.9806 249° West 461 531 34,000  Level Cleveland Center
17:28 43.1361 -83.1467 250° West 461 531 34,000  Level Cleveland Center
17:29 43.0906 -83.3125 249° West 461 531 34,000  Level Cleveland Center
17:30 43.0431 -83.4750 248° West 461 531 34,000  Level Cleveland Center
17:31 42.9992 -83.6378 250° West 461 531 34,000  Level Cleveland Center
17:32 42.9611 -83.8089 253° West 461 531 34,000  Level Cleveland Center
17:33 42.9436 -83.9811 262° West 461 531 34,000  Level Cleveland Center
17:34 42.9261 -84.1533 262° West 466 536 34,000 -720 Level Cleveland Center
17:36 42.8961 -84.4625 263° West 460 529 32,000 -720 Descending Chicago Center
17:37 42.8786 -84.6350 262° West 461 531 32,000  Level Chicago Center
17:38 42.8569 -84.8403 262° West 457 526 32,000  Level Chicago Center
17:39 42.8392 -85.0142 262° West 462 532 32,000 -60 Level Chicago Center
17:40 42.8211 -85.1825 262° West 454 522 31,900 -1,080 Descending Chicago Center
17:41 42.8033 -85.3481 262° West 443 510 29,800 -2,100 Descending Chicago Center
17:42 42.7847 -85.5075 261° West 429 494 27,600 -2,040 Descending Chicago Center
17:43 42.7572 -85.6575 256° West 414 476 25,600 -2,040 Descending Chicago Center
17:44 42.7311 -85.8028 256° West 399 459 23,400 -2,340 Descending Chicago Center
17:45 42.7011 -85.9681 256° West 378 435 20,800 -1,680 Descending Chicago Center
17:46 42.6772 -86.1014 256° West 367 422 20,000 -420 Descending Chicago Center
17:47 42.6528 -86.2342 256° West 363 418 20,000 -300 Level Chicago Center
17:48 42.6275 -86.3633 255° West 357 411 19,500 -1,020 Descending Chicago Center
17:50 42.6039 -86.4925 256° West 353 406 17,900 -1,560 Descending Chicago Center
17:51 42.5797 -86.6203 256° West 350 403 16,300 -1,560 Descending Chicago Center
17:52 42.5564 -86.7481 256° West 348 400 14,700 -1,800 Descending Chicago Center
17:53 42.5172 -86.8892 249° West 338 389 12,700 -1,800 Descending Chicago Center
17:54 42.4861 -87.0036 250° West 327 376 11,000 -1,320 Descending Chicago Center
17:55 42.4544 -87.1136 249° West 315 362 10,000 -840 Descending Chicago Center
17:56 42.4261 -87.2167 250° West 297 342 9,300 -540 Descending Chicago Center
17:57 42.3992 -87.3111 249° West 274 315 9,000 -660 Descending Chicago Center
17:58 42.3675 -87.4100 247° West 268 308 8,000 -1,020 Descending Chicago Center
17:59 42.3347 -87.5136 247° West 271 312 7,000 -540 Descending Chicago Center
18:00 42.2850 -87.5744 222° Southwest 271 312 7,000 -360 Level Chicago Center
18:01 42.2167 -87.6539 221° Southwest 267 307 6,300 -720 Descending Chicago Center
18:02 42.1689 -87.7100 221° Southwest 233 268 5,600 -1,080 Descending Chicago Center
18:03 42.1222 -87.7619 220° Southwest 222 255 4,100 -1,560 Descending Chicago Center
18:03 42.1000 -87.8000 232° Southwest 217 250 3,200 -1,320 Descending Chicago TRACON
18:05 42.0500 -87.8333 206° Southwest 175 201 2,000 -1,140 Descending Chicago TRACON